Regional Weather Roundup
Issued by NWS

Home | Current Version | Previous Version | Graphics & Text | Print | Product List | Glossary Off
Versions: 1 2 3 4 5 6 7 8 9 10 11 12 13 14 15 16 17 18 19 20 21 22 23 24 25 26 27 28 29 30 31 32 33 34 35 36 37 38 39 40 41 42 43 44 45 46 47 48 49 50

000
ASUS43 KMPX 031610
RWRMN
WEATHER ROUNDUP FOR MINNESOTA
NATIONAL WEATHER SERVICE TWIN CITIES/CHANHASSEN MN
1100 AM CDT TUE MAY 03 2016


NOTE: "FAIR" INDICATES FEW OR NO CLOUDS BELOW 12,000 FEET WITH NO
SIGNIFICANT WEATHER AND/OR OBSTRUCTIONS TO VISIBILITY. N/A MEANS
CURRENT SKY AND/OR WEATHER CONDITIONS ARE NOT AVAILABLE.

MNZ060>063-068>070-031700-
   Twin Cities Metro

CITY           SKY/WX    TMP DP  RH WIND       PRES   REMARKS
TWIN CITIES    PTSUNNY   64  40  41 W13       29.89F
ST PAUL        MOSUNNY   64  41  42 W10       29.88F
CRYSTAL        MOSUNNY   66  40  38 W13G20    29.87F
BLAINE         PTSUNNY   66  41  39 MISG        N/A
EDEN PRAIRIE   SUNNY     64  41  42 W8        29.89F
SOUTH ST PAUL  MOSUNNY   64  41  42 W12       29.88F
LAKE ELMO      FAIR      63  41  45 W14G23    29.89F
$$
MNZ001>005-007-008-013>017-022>024-027-028-031700-
   Northwest Minnesota

CITY           SKY/WX    TMP DP  RH WIND       PRES   REMARKS
BEMIDJI        CLOUDY    61  38  42 NW21G29   29.79S
HALLOCK        SUNNY     63  28  27 N25G31    29.87S
ROSEAU         SUNNY     63  28  27 N23       29.82R
WARROAD        SUNNY     59  32  36 NW20G29   29.82R
THIEF RVR FALL MOSUNNY   61  32  33 NW23      29.84S
CROOKSTON      SUNNY     64  34  32 N24G30    29.85R
FOSSTON        CLOUDY    61  36  39 NW14G23   29.82F
DETROIT LAKES  SUNNY     63  41  45 W13       29.84F
MOORHEAD       MOSUNNY   66  41  39 W15       29.85F
PARK RAPIDS    CLOUDY    64  37  36 W20       29.79F
MAHNOMEN       CLOUDY    65  38  37 NW18G26   29.82S
$$
MNZ006-009>011-018-025>026-031700-
   North Central Minnesota

CITY           SKY/WX    TMP DP  RH WIND       PRES   REMARKS
BAUDETTE       SUNNY     58  32  37 N24G31    29.78R
FLAG ISLAND    SUNNY     54  28  37 N26       29.80R
INTL FALLS     SUNNY     62  32  32 N23       29.72R
WASKISH        SUNNY     63  37  39 NW10G22   29.77S
BIG FORK       CLOUDY    61  37  41 W7G18     29.74F
LONGVILLE      CLOUDY    61  37  41 SW10G16   29.76F
GRAND RAPIDS   CLOUDY    59  36  41 W12G22    29.76F
CRANE LAKE     PTSUNNY   57  39  51 NW9       29.72R
ORR            PTSUNNY   57  36  44 W15       29.69F
COOK           CLOUDY    55  39  54 W13G20    29.73S
WALKER         CLOUDY    62  36  37 W22G29    29.77F
$$
MNZ012-019>021-037-031700-
   Northeast Minnesota

CITY           SKY/WX    TMP DP  RH WIND       PRES   REMARKS
DULUTH         CLOUDY    62  34  35 W20G29    29.73F
ELY            LGT RAIN  50  43  76 W7        29.71F
HIBBING        CLOUDY    58  35  42 NW13G25   29.72F
EVELETH        CLOUDY    57  32  38 W17G26    29.73F
DULUTH HARBOR  LGT RAIN  63  37  39 SW15      29.73F
TWO HARBORS    MOSUNNY   64  43  45 W16G22    29.69F
SILVER BAY     DRIZZLE   61  39  44 W7G20     29.68F
GRAND MARAIS     N/A     53  42  66 VRB5      29.67R
$$
MNZ029>031-032-039>041-046>048-054>057-064-031700-
   West Central Minnesota

CITY           SKY/WX    TMP DP  RH WIND       PRES   REMARKS
FERGUS FALLS   CLOUDY    63  45  51 W17       29.85F
WHEATON        PTSUNNY   66  48  52 W10G20    29.92F
MORRIS         MOSUNNY   64  43  45 W17       29.90F
ALEXANDRIA     MOSUNNY   62  42  47 W22G28    29.90F
ELBOW LAKE     FAIR      61  44  53 NW21G26   29.90F
WADENA         MOSUNNY   61  43  51 W18G24    29.83F
GLENWOOD       MOSUNNY   63  41  45 W20G25    29.89F
APPLETON       SUNNY     64  43  45 W15       29.91F
BENSON         SUNNY     64  39  39 W20       29.91F
ORTONVILLE     MOSUNNY   63  45  51 W10       29.91F
MADISON        SUNNY     64  43  45 W18       29.92F
WILLMAR        FAIR      64  43  45 W17       29.92F
$$
MNZ033>034-036-042>043-049>051-058-059-031700-
   Central Minnesota

CITY           SKY/WX    TMP DP  RH WIND       PRES   REMARKS
ST CLOUD       MOSUNNY   65  39  38 W18G25    29.85F
SAUK CENTRE    FAIR      61  42  48 W21G30    29.88F
PAYNESVILLE    CLOUDY    63  38  39 W22       29.90F
AITKIN         CLOUDY    64  30  27 W9G23     29.77F
PINE RIVER     CLOUDY    63  41  45 W9G20     29.83F
BRAINERD       PTSUNNY   63  37  38 W17G31    29.81F
STAPLES        MOSUNNY   63  39  42 W18G30    29.83F
LONG PRAIRIE   FAIR      59  41  51 W17G26    29.88F
LITTLE FALLS   SUNNY     63  36  36 W16G24    29.85F
LITCHFIELD     MOSUNNY   64  43  45 W14G20    29.91F
BUFFALO        MOSUNNY   64  39  40 W14       29.89F
MAPLE LAKE     CLOUDY    64  42  44 W17G24    29.89F
HUTCHINSON     SUNNY     65  43  43 W16G22    29.92F
$$
MNZ037-044-045-052-053-031700-
   East Central Minnesota

CITY           SKY/WX    TMP DP  RH WIND       PRES   REMARKS
PRINCETON        N/A     66  39  37 W20G28    29.85F
MORA           MOSUNNY   63  37  39 W16G26    29.84F
CAMBRIDGE      MOSUNNY   66  45  45 W17G23    29.82F
RUSH CITY      CLOUDY    65  38  37 W10G24    29.83F
MOOSE LAKE     CLOUDY    63  36  36 W15G23    29.76F
HINCKLEY       FAIR      66  37  34 W14G29    29.81F
CLOQUET        CLOUDY    61  32  33 W17       29.75F
MCGREGOR       CLOUDY    63  36  36 W12G21    29.78F
$$
MNZ071>073-080-081-089-090-097-098-031700-
   Southwest Minnesota

CITY           SKY/WX    TMP DP  RH WIND       PRES   REMARKS
MONTEVIDEO     SUNNY     64  43  45 NW12      29.94F
GRANITE FALLS  SUNNY     66  44  44 SW17G23   29.95F
CANBY          SUNNY     65  47  52 W15       29.95F
MARSHALL       SUNNY     62  43  49 W20       29.95F
REDWOOD FALLS  SUNNY     64  40  41 W14G24    29.93F
OLIVIA         SUNNY     63  41  45 W18       29.92F
PIPESTONE      SUNNY     61  45  55 NW15G21   29.98F
WINDOM         SUNNY     63  39  42 SW14G20   29.97R
WORTHINGTON    SUNNY     60  45  57 W14       29.98F
JACKSON        SUNNY     61  36  39 W12       29.98F
TRACY          SUNNY     63  44  50 W9G17     29.96F
SLAYTON        SUNNY     59  42  54 W17       29.98F
$$
MNZ065>067-074>077-082>085-091>093-031700-
   South Central Minnesota

CITY           SKY/WX    TMP DP  RH WIND       PRES   REMARKS
MANKATO        SUNNY     63  43  48 W12       29.93F
ST JAMES       SUNNY     59  37  44 W14       29.96S
FAIRMONT       SUNNY     63  39  42 W14       29.96F
GLENCOE        SUNNY     65  44  46 W15       29.90F
FARIBAULT      MOSUNNY   64  41  42 W14G20    29.93S
OWATONNA       SUNNY     64  39  39 W15       29.92F
WASECA         SUNNY     63  39  42 W17G24    29.94F
ALBERT LEA     SUNNY     64  39  39 NW10G17   29.94F
$$
MNZ078>079-086>088-094>096-031700-
   Southeast Minnesota

CITY           SKY/WX    TMP DP  RH WIND       PRES   REMARKS
ROCHESTER      SUNNY     64  44  48 W18       29.93F
RED WING       MOSUNNY   66  36  32 W12       29.87F
STANTON        SUNNY     66  39  37 W14       29.89F
DODGE CENTER   SUNNY     64  41  42 W17       29.93S
WINONA         SUNNY     66  37  34 NW8       29.90F
AUSTIN         SUNNY     63  39  42 NW16      29.94F
PRESTON        SUNNY     63  41  44 W17       29.94F
$$
ABBREVIATIONS USED IN REMARKS
   TC - TEMPERATURES IN CELSIUS
  WCI - WIND CHILL INDEX
   HX - HEAT INDEX
  VSB - VISIBILITY
$$



USA.gov is the U.S. government's official web portal to all federal, state and local government web resources and services.